• In Latvia
  • List of Countries
  • For 7 days
  • Water Temperature
  • Satellite Maps
  • Weather Map
  • Weather Widgets
  • user-avatar
    Login

    Hourly Weather Aylesbury

    Today, 20 September, Wednesday

    Time Temperature Precipitation Wind Pressure Humidity
    00:00 +10°C° 0 mm 2 mps 757 mmHg 90%
    01:00 +10°C° 0 mm 2 mps 757 mmHg 91%
    02:00 +10°C° 0 mm 2 mps 757 mmHg 92%
    03:00 +9°C° 0 mm 2 mps 756 mmHg 93%
    04:00 +9°C° 0 mm 2 mps 756 mmHg 93%
    05:00 +9°C° 0 mm 3 mps 756 mmHg 94%
    06:00 +9°C° 0 mm 2 mps 756 mmHg 94%
    07:00 +11°C° 0 mm 3 mps 756 mmHg 89%
    08:00 +13°C° 0 mm 4 mps 756 mmHg 83%
    09:00 +15°C° 0 mm 4 mps 756 mmHg 78%
    10:00 +16°C° 0 mm 5 mps 756 mmHg 74%
    11:00 +17°C° 0 mm 5 mps 755 mmHg 71%
    12:00 +19°C° 0 mm 5 mps 755 mmHg 67%
    13:00 +17°C° 0 mm 5 mps 755 mmHg 68%
    14:00 +17°C° 0 mm 5 mps 755 mmHg 69%
    15:00 +17°C° 0 mm 5 mps 754 mmHg 70%
    16:00 +16°C° 0 mm 5 mps 754 mmHg 74%
    17:00 +15°C° 0 mm 5 mps 754 mmHg 77%
    18:00 +15°C° 0 mm 4 mps 754 mmHg 80%
    19:00 +14°C° 0.1 mm 5 mps 754 mmHg 82%
    20:00 +14°C° 0.1 mm 5 mps 754 mmHg 84%
    21:00 +14°C° 0.1 mm 5 mps 754 mmHg 86%
    22:00 +14°C° 0 mm 5 mps 753 mmHg 86%
    23:00 +14°C° 0 mm 5 mps 753 mmHg 86%

    Tomorrow, 21 September, Thursday

    Time Temperature Precipitation Wind Pressure Humidity
    00:00 +14°C° 0 mm 5 mps 753 mmHg 86%
    01:00 +14°C° 0 mm 5 mps 753 mmHg 87%
    02:00 +14°C° 0 mm 5 mps 753 mmHg 88%
    03:00 +14°C° 0 mm 5 mps 752 mmHg 88%
    04:00 +13°C° 0 mm 5 mps 752 mmHg 90%
    05:00 +13°C° 0 mm 5 mps 752 mmHg 91%
    06:00 +12°C° 0 mm 5 mps 751 mmHg 92%
    07:00 +13°C° 0 mm 5 mps 751 mmHg 86%
    08:00 +14°C° 0 mm 6 mps 751 mmHg 80%
    09:00 +15°C° 0 mm 7 mps 751 mmHg 74%
    10:00 +16°C° 0.2 mm 7 mps 751 mmHg 73%
    11:00 +16°C° 0.2 mm 7 mps 751 mmHg 71%
    12:00 +17°C° 0.2 mm 7 mps 751 mmHg 70%
    13:00 +16°C° 1.1 mm 6 mps 751 mmHg 73%
    14:00 +16°C° 1.1 mm 6 mps 751 mmHg 77%
    15:00 +15°C° 1.1 mm 5 mps 751 mmHg 81%
    16:00 +15°C° 0.5 mm 5 mps 751 mmHg 83%
    17:00 +14°C° 0.5 mm 4 mps 752 mmHg 86%
    18:00 +14°C° 0.5 mm 4 mps 752 mmHg 88%
    19:00 +13°C° 0 mm 4 mps 753 mmHg 89%
    20:00 +12°C° 0 mm 4 mps 753 mmHg 90%
    21:00 +11°C° 0 mm 4 mps 754 mmHg 91%
    22:00 +10°C° 0 mm 3 mps 754 mmHg 91%
    23:00 +10°C° 0 mm 3 mps 755 mmHg 91%

    Day after tomorrow, 22 September, Friday

    Time Temperature Precipitation Wind Pressure Humidity
    00:00 +9°C° 0 mm 3 mps 755 mmHg 91%
    01:00 +9°C° 0 mm 3 mps 756 mmHg 91%
    02:00 +8°C° 0 mm 2 mps 756 mmHg 91%
    03:00 +8°C° 0 mm 2 mps 756 mmHg 90%
    04:00 +8°C° 0 mm 2 mps 756 mmHg 91%
    05:00 +8°C° 0 mm 2 mps 757 mmHg 91%
    06:00 +7°C° 0 mm 2 mps 757 mmHg 91%
    07:00 +9°C° 0 mm 3 mps 757 mmHg 86%
    08:00 +11°C° 0 mm 3 mps 757 mmHg 81%
    09:00 +13°C° 0 mm 4 mps 758 mmHg 76%
    10:00 +14°C° 0 mm 5 mps 758 mmHg 72%
    11:00 +15°C° 0 mm 5 mps 757 mmHg 67%
    12:00 +16°C° 0 mm 6 mps 757 mmHg 63%
    13:00 +17°C° 0 mm 6 mps 757 mmHg 64%
    14:00 +17°C° 0 mm 6 mps 757 mmHg 65%
    15:00 +17°C° 0 mm 7 mps 757 mmHg 66%
    16:00 +16°C° 0.1 mm 6 mps 757 mmHg 70%
    17:00 +15°C° 0.1 mm 6 mps 757 mmHg 75%
    18:00 +14°C° 0.1 mm 5 mps 757 mmHg 79%
    19:00 +14°C° 0.1 mm 5 mps 757 mmHg 82%
    20:00 +14°C° 0.1 mm 5 mps 757 mmHg 84%
    21:00 +14°C° 0.1 mm 5 mps 758 mmHg 87%
    22:00 +14°C° 0 mm 5 mps 758 mmHg 88%
    23:00 +14°C° 0 mm 5 mps 758 mmHg 89%

    23 September, Saturday

    Time Temperature Precipitation Wind Pressure Humidity
    00:00 +14°C° 0 mm 5 mps 758 mmHg 91%
    01:00 +14°C° 0 mm 5 mps 758 mmHg 91%
    02:00 +13°C° 0 mm 4 mps 758 mmHg 92%
    03:00 +13°C° 0 mm 4 mps 758 mmHg 93%
    04:00 +13°C° 0 mm 4 mps 758 mmHg 93%
    05:00 +13°C° 0 mm 4 mps 758 mmHg 94%
    06:00 +12°C° 0 mm 3 mps 758 mmHg 94%
    07:00 +13°C° 0 mm 4 mps 758 mmHg 88%
    08:00 +15°C° 0 mm 4 mps 758 mmHg 83%
    09:00 +16°C° 0 mm 5 mps 758 mmHg 77%
    10:00 +17°C° 0 mm 5 mps 758 mmHg 71%
    11:00 +19°C° 0 mm 5 mps 758 mmHg 64%
    12:00 +20°C° 0 mm 5 mps 758 mmHg 58%
    13:00 +20°C° 0 mm 5 mps 758 mmHg 55%
    14:00 +20°C° 0 mm 5 mps 757 mmHg 53%
    15:00 +20°C° 0 mm 5 mps 757 mmHg 51%
    16:00 +17°C° 0 mm 5 mps 757 mmHg 56%
    17:00 +17°C° 0 mm 4 mps 757 mmHg 61%
    18:00 +14°C° 0 mm 3 mps 757 mmHg 66%
    19:00 +13°C° 0 mm 3 mps 757 mmHg 69%
    20:00 +13°C° 0 mm 3 mps 757 mmHg 71%
    21:00 +12°C° 0 mm 3 mps 757 mmHg 73%
    22:00 +12°C° 0 mm 3 mps 757 mmHg 73%
    23:00 +13°C° 0 mm 3 mps 757 mmHg 72%

    24 September, Sunday

    Time Temperature Precipitation Wind Pressure Humidity
    00:00 +13°C° 0 mm 4 mps 757 mmHg 71%
    01:00 +13°C° 0 mm 4 mps 757 mmHg 73%
    02:00 +13°C° 0 mm 3 mps 757 mmHg 75%
    03:00 +12°C° 0 mm 3 mps 756 mmHg 77%
    04:00 +12°C° 0 mm 4 mps 757 mmHg 77%
    05:00 +12°C° 0 mm 4 mps 757 mmHg 78%
    06:00 +12°C° 0 mm 4 mps 757 mmHg 78%
    07:00 +13°C° 0 mm 4 mps 757 mmHg 76%
    08:00 +14°C° 0 mm 4 mps 757 mmHg 74%
    09:00 +15°C° 0 mm 4 mps 757 mmHg 72%
    10:00 +17°C° 0 mm 4 mps 757 mmHg 70%
    11:00 +18°C° 0 mm 4 mps 757 mmHg 68%
    12:00 +20°C° 0 mm 4 mps 757 mmHg 65%
    13:00 +19°C° 0.2 mm 3 mps 757 mmHg 69%
    14:00 +19°C° 0.2 mm 3 mps 757 mmHg 72%
    15:00 +18°C° 0.2 mm 3 mps 757 mmHg 75%
    16:00 +18°C° 0 mm 3 mps 757 mmHg 78%
    17:00 +17°C° 0 mm 2 mps 757 mmHg 81%
    18:00 +17°C° 0 mm 2 mps 757 mmHg 84%
    19:00 +16°C° 0 mm 2 mps 758 mmHg 86%
    20:00 +16°C° 0 mm 2 mps 758 mmHg 87%
    21:00 +16°C° 0 mm 2 mps 758 mmHg 88%
    22:00 +16°C° 0.1 mm 2 mps 758 mmHg 88%
    23:00 +16°C° 0.1 mm 1 mps 758 mmHg 88%

    25 September, Monday

    Time Temperature Precipitation Wind Pressure Humidity
    00:00 +16°C° 0.1 mm 1 mps 758 mmHg 88%
    01:00 +16°C° 0.5 mm 1 mps 758 mmHg 89%
    02:00 +15°C° 0.5 mm 1 mps 757 mmHg 90%
    03:00 +15°C° 0.5 mm 1 mps 757 mmHg 91%
    04:00 +15°C° 1.1 mm 1 mps 757 mmHg 92%
    05:00 +15°C° 1.1 mm 2 mps 757 mmHg 93%
    06:00 +15°C° 1.1 mm 2 mps 757 mmHg 93%
    07:00 +15°C° 0.4 mm 2 mps 757 mmHg 92%
    08:00 +16°C° 0.4 mm 2 mps 758 mmHg 91%
    09:00 +16°C° 0.4 mm 3 mps 758 mmHg 90%
    10:00 +17°C° 0.1 mm 3 mps 758 mmHg 86%
    11:00 +17°C° 0.1 mm 3 mps 758 mmHg 83%
    12:00 +18°C° 0.1 mm 3 mps 758 mmHg 80%
    13:00 +19°C° 0 mm 3 mps 758 mmHg 77%
    14:00 +19°C° 0 mm 3 mps 758 mmHg 75%
    15:00 +20°C° 0 mm 3 mps 758 mmHg 73%
    16:00 +19°C° 0 mm 3 mps 758 mmHg 76%
    17:00 +18°C° 0 mm 3 mps 758 mmHg 78%
    18:00 +18°C° 0 mm 2 mps 758 mmHg 81%
    19:00 +17°C° 0 mm 3 mps 758 mmHg 83%
    20:00 +16°C° 0 mm 3 mps 758 mmHg 84%
    21:00 +16°C° 0 mm 3 mps 759 mmHg 86%
    22:00 +16°C° 0 mm 2 mps 758 mmHg 87%
    23:00 +15°C° 0 mm 2 mps 758 mmHg 88%
    Show more